HS6BUE-3 Weather Reports


Display with metric or nautical units.
time (UTC)temp
F
wind
direction
speed
MPH
gust
MPH
rain 1hr
in
rain 24hr
in
rain mn
in
humidity
%
barometer
mb
20260505121722 90 0 0.0 0.0 0.00 0.00 0.00 43 1002.0
20260505120659 90 0 0.0 0.0 0.00 0.00 0.00 43 1002.0
20260505115637 90 0 0.0 0.0 0.00 0.00 0.00 43 1002.0
20260505114614 90 0 0.0 0.0 0.00 0.00 0.00 42 1002.0
20260505113552 90 0 0.0 0.0 0.00 0.00 0.00 42 1002.0
20260505112529 90 0 0.0 0.0 0.00 0.00 0.00 41 1001.0
20260505111506 90 0 0.0 0.0 0.00 0.00 0.00 41 1001.0
20260505110444 90 0 0.0 0.0 0.00 0.00 0.00 40 1001.0
20260505101250 88 0 0.0 0.0 0.00 0.00 0.00 38 1001.0
20260505100228 87 0 0.0 0.0 0.00 0.00 0.00 37 1001.0
20260505095205 86 0 0.0 0.0 0.00 0.00 0.00 37 1001.0
20260505094142 85 0 0.0 0.0 0.00 0.00 0.00 37 1001.0
20260505093120 83 0 0.0 0.0 0.00 0.00 0.00 37 1001.0
20260505092057 83 0 0.0 0.0 0.00 0.00 0.00 38 1001.0
20260505091034 84 0 0.0 0.0 0.00 0.00 0.00 37 1001.0
20260505090012 84 0 0.0 0.0 0.00 0.00 0.00 36 1001.0
20260505084949 83 0 0.0 0.0 0.00 0.00 0.00 36 1001.0
20260505083926 83 0 0.0 0.0 0.00 0.00 0.00 36 1002.0
20260505082904 84 0 0.0 0.0 0.00 0.00 0.00 36 1002.0
20260505081841 84 0 0.0 0.0 0.00 0.00 0.00 36 1002.0
20260505080818 84 0 0.0 0.0 0.00 0.00 0.00 36 1002.0
20260505075756 84 0 0.0 0.0 0.00 0.00 0.00 36 1002.0
20260505074733 84 0 0.0 0.0 0.00 0.00 0.00 37 1003.0
20260505073710 84 0 0.0 0.0 0.00 0.00 0.00 37 1003.0
20260505072648 84 0 0.0 0.0 0.00 0.00 0.00 38 1003.0
20260505071625 84 0 0.0 0.0 0.00 0.00 0.00 40 1003.0
20260505070602 83 0 0.0 0.0 0.00 0.00 0.00 46 1003.0
20260505065540 83 0 0.0 0.0 0.00 0.00 0.00 40 1003.0
20260505064517 85 0 0.0 0.0 0.00 0.00 0.00 36 1004.0
20260505063455 84 0 0.0 0.0 0.00 0.00 0.00 36 1004.0
20260505062432 84 0 0.0 0.0 0.00 0.00 0.00 36 1004.0
20260505061410 84 0 0.0 0.0 0.00 0.00 0.00 37 1005.0
20260505060347 84 0 0.0 0.0 0.00 0.00 0.00 37 1005.0
20260505055324 84 0 0.0 0.0 0.00 0.00 0.00 38 1005.0
20260505054301 83 0 0.0 0.0 0.00 0.00 0.00 41 1006.0
20260505053239 83 0 0.0 0.0 0.00 0.00 0.00 43 1006.0
20260505052216 82 0 0.0 0.0 0.00 0.00 0.00 40 1006.0
20260505051153 83 0 0.0 0.0 0.00 0.00 0.00 41 1006.0
20260505050131 82 0 0.0 0.0 0.00 0.00 0.00 41 1006.0
20260505040937 83 0 0.0 0.0 0.00 0.00 0.00 48 1007.0
20260505035914 83 0 0.0 0.0 0.00 0.00 0.00 47 1007.0
20260505034852 82 0 0.0 0.0 0.00 0.00 0.00 44 1007.0
20260505033829 82 0 0.0 0.0 0.00 0.00 0.00 43 1007.0
20260505032807 82 0 0.0 0.0 0.00 0.00 0.00 48 1007.0
20260505031744 83 0 0.0 0.0 0.00 0.00 0.00 50 1007.0
20260505030721 82 0 0.0 0.0 0.00 0.00 0.00 41 1008.0
20260505025659 82 0 0.0 0.0 0.00 0.00 0.00 42 1008.0
20260505024636 82 0 0.0 0.0 0.00 0.00 0.00 41 1008.0
20260505023613 82 0 0.0 0.0 0.00 0.00 0.00 45 1008.0
20260505022551 82 0 0.0 0.0 0.00 0.00 0.00 43 1008.0
20260505021528 82 0 0.0 0.0 0.00 0.00 0.00 41 1008.0
20260505020505 81 0 0.0 0.0 0.00 0.00 0.00 42 1008.0
20260505015443 81 0 0.0 0.0 0.00 0.00 0.00 45 1008.0
20260505014420 82 0 0.0 0.0 0.00 0.00 0.00 42 1008.0
20260505013357 82 0 0.0 0.0 0.00 0.00 0.00 43 1008.0
20260505012334 82 0 0.0 0.0 0.00 0.00 0.00 44 1008.0
20260505011312 82 0 0.0 0.0 0.00 0.00 0.00 36 1008.0
20260505010249 83 0 0.0 0.0 0.00 0.00 0.00 38 1007.0
20260505005226 85 0 0.0 0.0 0.00 0.00 0.00 40 1007.0
20260505004204 88 0 0.0 0.0 0.00 0.00 0.00 46 1007.0
20260505003141 90 0 0.0 0.0 0.00 0.00 0.00 51 1007.0
20260505002118 90 0 0.0 0.0 0.00 0.00 0.00 51 1007.0
20260505001058 89 0 0.0 0.0 0.00 0.00 0.00 51 1007.0
20260505000032 89 0 0.0 0.0 0.00 0.00 0.00 50 1007.0
20260504235010 89 0 0.0 0.0 0.00 0.00 0.00 50 1007.0
20260504233947 90 0 0.0 0.0 0.00 0.00 0.00 56 1007.0
20260504232924 91 0 0.0 0.0 0.00 0.00 0.00 57 1007.0
20260504231902 91 0 0.0 0.0 0.00 0.00 0.00 57 1007.0
20260504230839 91 0 0.0 0.0 0.00 0.00 0.00 57 1007.0
20260504225816 91 0 0.0 0.0 0.00 0.00 0.00 57 1007.0
20260504224754 91 0 0.0 0.0 0.00 0.00 0.00 57 1007.0
20260504223731 91 0 0.0 0.0 0.00 0.00 0.00 57 1006.0
20260504222708 91 0 0.0 0.0 0.00 0.00 0.00 57 1006.0
20260504221646 91 0 0.0 0.0 0.00 0.00 0.00 57 1006.0
20260504220623 91 0 0.0 0.0 0.00 0.00 0.00 57 1006.0
20260504215600 91 0 0.0 0.0 0.00 0.00 0.00 56 1006.0
20260504214538 91 0 0.0 0.0 0.00 0.00 0.00 56 1006.0
20260504213515 91 0 0.0 0.0 0.00 0.00 0.00 56 1006.0
20260504212453 91 0 0.0 0.0 0.00 0.00 0.00 56 1005.0
20260504211430 92 0 0.0 0.0 0.00 0.00 0.00 56 1005.0
20260504210407 92 0 0.0 0.0 0.00 0.00 0.00 55 1005.0
20260504205344 92 0 0.0 0.0 0.00 0.00 0.00 55 1005.0
20260504204322 92 0 0.0 0.0 0.00 0.00 0.00 55 1005.0
20260504203259 92 0 0.0 0.0 0.00 0.00 0.00 55 1005.0
20260504202236 92 0 0.0 0.0 0.00 0.00 0.00 55 1005.0
20260504201213 92 0 0.0 0.0 0.00 0.00 0.00 54 1005.0
20260504200151 92 0 0.0 0.0 0.00 0.00 0.00 54 1006.0
20260504195128 92 0 0.0 0.0 0.00 0.00 0.00 54 1005.0
20260504194106 92 0 0.0 0.0 0.00 0.00 0.00 54 1005.0
20260504193043 92 0 0.0 0.0 0.00 0.00 0.00 53 1005.0
20260504192020 93 0 0.0 0.0 0.00 0.00 0.00 53 1005.0
20260504190957 93 0 0.0 0.0 0.00 0.00 0.00 53 1005.0
20260504185935 93 0 0.0 0.0 0.00 0.00 0.00 53 1005.0
20260504184912 93 0 0.0 0.0 0.00 0.00 0.00 53 1005.0
20260504183849 93 0 0.0 0.0 0.00 0.00 0.00 53 1005.0
20260504182827 93 0 0.0 0.0 0.00 0.00 0.00 53 1005.0
20260504181804 93 0 0.0 0.0 0.00 0.00 0.00 53 1005.0
20260504180741 93 0 0.0 0.0 0.00 0.00 0.00 53 1005.0
20260504175719 93 0 0.0 0.0 0.00 0.00 0.00 53 1006.0
20260504174657 93 0 0.0 0.0 0.00 0.00 0.00 53 1006.0
20260504173634 93 0 0.0 0.0 0.00 0.00 0.00 53 1006.0
20260504172611 93 0 0.0 0.0 0.00 0.00 0.00 52 1006.0
20260504171549 93 0 0.0 0.0 0.00 0.00 0.00 52 1006.0
20260504170526 93 0 0.0 0.0 0.00 0.00 0.00 52 1006.0
20260504160310 93 0 0.0 0.0 0.00 0.00 0.00 51 1006.0
20260504151117 94 0 0.0 0.0 0.00 0.00 0.00 50 1005.0
20260504140900 94 0 0.0 0.0 0.00 0.00 0.00 50 1004.0
20260504130645 94 0 0.0 0.0 0.00 0.00 0.00 49 1003.0